Flag for Guinea Weather past 2 weeks in Nzérékoré, Guinea

Now
75 °F

Passing clouds.


Feels Like: 74 °F
Forecast: 69 / 79 °F
Wind: 3 mph from Southwest

Location: Roberts Field

Current Time: Aug 23, 2014 at 12:03:17 AM

Latest Report: Aug 22, 2014 at 11:30 PM


Visibility: N/A

Pressure: 30.01 "Hg

Humidity: 94%

Dew point: 73 °F

Location of NzérékoréLocation

Historic Weather in Nzérékoré — Graph

°F

Nzérékoré temperature yesterday

Maximum temperature yesterday: 82 °F (at 11:00 AM)
Minimum temperature yesterday: 75 °F (at 5:00 AM)
Average temperature yesterday: 78 °F

Past Weeks' High & Low Weather Summary

 TemperatureHumidityPressure
High82 °F (Aug 15, 2:30 PM)100% (Aug 8, 12:00 PM)30.04 "Hg (Aug 8, 12:00 PM)
Low72 °F (Aug 18, 6:00 AM)74% (Aug 11, 4:30 PM)29.89 "Hg (Aug 8, 4:00 PM)
Average76 °F90%29.96 "Hg
* Reported Aug 7 11:00 PM — Aug 22 11:00 PM, Nzérékoré, Weather by CustomWeather, © 2014

Note: Actual official high and low records may vary slightly from our data, if they occured in-between our weather recording intervals... More about our weather records

Advertising

Nzérékoré weather history for previous 24 hours

 ConditionsComfort  
Time TempWeatherWind HumidityBarometerVisibility
11:00 PM
Aug 22
75 °FPassing clouds.3 mph94%29.98 "HgN/A
10:30 PM75 °FPassing clouds.6 mph94%29.98 "HgN/A
9:00 PM75 °FPassing clouds.5 mph94%29.95 "HgN/A
8:00 PM77 °FPassing clouds.5 mph83%29.95 "HgN/A
7:30 PM77 °FPartly sunny.No wind83%29.95 "HgN/A
7:00 PM77 °FPartly sunny.5 mph89%29.95 "HgN/A
6:30 PM79 °FPartly sunny.9 mph84%29.95 "HgN/A
6:00 PM79 °FPartly sunny.12 mph79%29.92 "HgN/A
5:30 PM79 °FPartly sunny.12 mph79%29.92 "HgN/A
5:00 PM81 °FPartly sunny.14 mph74%29.92 "HgN/A
4:30 PM81 °FPartly sunny.10 mph79%29.92 "HgN/A
4:00 PM81 °FPartly sunny.12 mph79%29.92 "HgN/A
3:30 PM81 °FPartly sunny.14 mph79%29.95 "HgN/A
3:00 PM81 °FPartly sunny.16 mph79%29.95 "HgN/A
2:00 PM82 °FPartly sunny.14 mph74%29.95 "HgN/A
1:30 PM82 °FPartly sunny.12 mph74%29.98 "HgN/A
1:00 PM82 °FPartly sunny.15 mph74%30.01 "HgN/A
12:30 PM81 °FPartly sunny.14 mph84%30.01 "HgN/A
12:00 PM81 °FPartly sunny.14 mph84%30.01 "HgN/A
11:30 AM81 °FPartly sunny.15 mph84%30.01 "HgN/A
11:00 AM82 °FPartly sunny.16 mph79%30.01 "HgN/A
10:30 AM81 °FPartly sunny.13 mph79%30.01 "HgN/A
10:00 AM79 °FPartly sunny.12 mph84%30.01 "HgN/A
9:30 AM79 °FPartly sunny.8 mph84%30.01 "HgN/A
9:00 AM79 °FPartly sunny.12 mph84%30.01 "HgN/A
8:30 AM79 °FPartly sunny.6 mph84%30.01 "HgN/A
8:00 AM79 °FPartly sunny.7 mph84%29.98 "HgN/A
7:30 AM77 °FPassing clouds.7 mph89%29.98 "HgN/A
7:00 AM75 °FPassing clouds.6 mph94%29.98 "HgN/A
6:30 AM75 °FPassing clouds.6 mph94%29.95 "HgN/A
6:00 AM75 °FPassing clouds.5 mph94%29.95 "HgN/A
5:30 AM75 °FPassing clouds.5 mph94%29.95 "HgN/A
5:00 AM75 °FPassing clouds.8 mph94%29.95 "HgN/A
2:00 AM77 °FPassing clouds.9 mph83%29.95 "HgN/A
1:00 AM77 °FPassing clouds.7 mph83%29.98 "HgN/A
12:00 AM77 °FPassing clouds.8 mph83%30.01 "HgN/A
Weather by CustomWeather, © 2014

See weather overviewHow to use our weather pages